Year,Month,Day,Hour,Minute,Value (Times are PST for temperature in C)
2007,08,16,00,00,16.30
2007,08,16,00,01,16.30
2007,08,16,00,02,16.30
2007,08,16,00,03,16.30
2007,08,16,00,04,16.30
2007,08,16,00,05,16.30
2007,08,16,00,06,16.30
2007,08,16,00,07,16.30
2007,08,16,00,08,16.30
2007,08,16,00,09,16.30
2007,08,16,00,10,16.30
2007,08,16,00,11,16.30
2007,08,16,00,12,16.30
2007,08,16,00,13,16.30
2007,08,16,00,14,16.30
2007,08,16,00,15,16.30
2007,08,16,00,16,16.30
2007,08,16,00,17,16.30
2007,08,16,00,18,16.30
2007,08,16,00,19,16.30
2007,08,16,00,20,16.30
2007,08,16,00,21,16.30
2007,08,16,00,22,16.20
2007,08,16,00,23,16.20
2007,08,16,00,24,16.20
2007,08,16,00,25,16.20
2007,08,16,00,26,16.20
2007,08,16,00,27,16.20
2007,08,16,00,28,16.20
2007,08,16,00,29,16.10
2007,08,16,00,30,16.10
2007,08,16,00,31,16.10
2007,08,16,00,32,16.10
2007,08,16,00,33,16.10
2007,08,16,00,34,16.10
2007,08,16,00,35,16.10
2007,08,16,00,36,16.10
2007,08,16,00,37,16.10
2007,08,16,00,38,16.10
2007,08,16,00,39,16.10
2007,08,16,00,40,16.10
2007,08,16,00,41,16.10
2007,08,16,00,42,16.10
2007,08,16,00,43,16.00
2007,08,16,00,44,15.90
2007,08,16,00,45,15.90
2007,08,16,00,46,15.90
2007,08,16,00,47,15.80
2007,08,16,00,48,15.80
2007,08,16,00,49,15.80
2007,08,16,00,50,15.80
2007,08,16,00,51,15.80
2007,08,16,00,52,15.70
2007,08,16,00,53,15.70
2007,08,16,00,54,15.70
2007,08,16,00,55,15.60
2007,08,16,00,56,15.60
2007,08,16,00,57,15.60
2007,08,16,00,58,15.60
2007,08,16,00,59,15.50
2007,08,16,01,00,15.50
2007,08,16,01,01,15.50
2007,08,16,01,02,15.50
2007,08,16,01,03,15.50
2007,08,16,01,04,15.40
2007,08,16,01,05,15.40
2007,08,16,01,06,15.40
2007,08,16,01,07,15.40
2007,08,16,01,08,15.40
2007,08,16,01,09,15.40
2007,08,16,01,10,15.40
2007,08,16,01,11,15.40
2007,08,16,01,12,15.40
2007,08,16,01,13,15.40
2007,08,16,01,14,15.40
2007,08,16,01,15,15.40
2007,08,16,01,16,15.40
2007,08,16,01,17,15.40
2007,08,16,01,18,15.40
2007,08,16,01,19,15.40
2007,08,16,01,20,15.30
2007,08,16,01,21,15.30
2007,08,16,01,22,15.40
2007,08,16,01,23,15.40
2007,08,16,01,24,15.40
2007,08,16,01,25,15.40
2007,08,16,01,26,15.40
2007,08,16,01,27,15.40
2007,08,16,01,28,15.40
2007,08,16,01,29,15.50
2007,08,16,01,30,15.50
2007,08,16,01,31,15.50
2007,08,16,01,32,15.50
2007,08,16,01,33,15.50
2007,08,16,01,34,15.50
2007,08,16,01,35,15.50
2007,08,16,01,36,15.50
2007,08,16,01,37,15.40
2007,08,16,01,38,15.40
2007,08,16,01,39,15.40
2007,08,16,01,40,15.40
2007,08,16,01,41,15.40
2007,08,16,01,42,15.40
2007,08,16,01,43,15.40
2007,08,16,01,44,15.40
2007,08,16,01,45,15.40
2007,08,16,01,46,15.50
2007,08,16,01,47,15.50
2007,08,16,01,48,15.50
2007,08,16,01,49,15.50
2007,08,16,01,50,15.50
2007,08,16,01,51,15.40
2007,08,16,01,52,15.40
2007,08,16,01,53,15.40
2007,08,16,01,54,15.40
2007,08,16,01,55,15.30
2007,08,16,01,56,15.30
2007,08,16,01,57,15.30
2007,08,16,01,58,15.30
2007,08,16,01,59,15.20
2007,08,16,02,00,15.20
2007,08,16,02,01,15.20
2007,08,16,02,02,15.10
2007,08,16,02,03,15.10
2007,08,16,02,04,15.00
2007,08,16,02,05,15.00
2007,08,16,02,06,15.00
2007,08,16,02,07,15.00
2007,08,16,02,08,15.00
2007,08,16,02,09,15.00
2007,08,16,02,10,15.00
2007,08,16,02,11,14.90
2007,08,16,02,12,14.90
2007,08,16,02,13,14.90
2007,08,16,02,14,14.90
2007,08,16,02,15,14.90
2007,08,16,02,16,14.80
2007,08,16,02,17,14.80
2007,08,16,02,18,14.80
2007,08,16,02,19,14.80
2007,08,16,02,20,14.80
2007,08,16,02,21,14.80
2007,08,16,02,22,14.80
2007,08,16,02,23,14.80
2007,08,16,02,24,14.70
2007,08,16,02,25,14.70
2007,08,16,02,26,14.70
2007,08,16,02,27,14.60
2007,08,16,02,28,14.60
2007,08,16,02,29,14.50
2007,08,16,02,30,14.50
2007,08,16,02,31,14.50
2007,08,16,02,32,14.40
2007,08,16,02,33,14.40
2007,08,16,02,34,14.40
2007,08,16,02,35,14.30
2007,08,16,02,36,14.30
2007,08,16,02,37,14.20
2007,08,16,02,38,14.20
2007,08,16,02,39,14.20
2007,08,16,02,40,14.20
2007,08,16,02,41,14.20
2007,08,16,02,42,14.20
2007,08,16,02,43,14.20
2007,08,16,02,44,14.20
2007,08,16,02,45,14.20
2007,08,16,02,46,14.20
2007,08,16,02,47,14.20
2007,08,16,02,48,14.20
2007,08,16,02,49,14.20
2007,08,16,02,50,14.20
2007,08,16,02,51,14.20
2007,08,16,02,52,14.20
2007,08,16,02,53,14.20
2007,08,16,02,54,14.10
2007,08,16,02,55,14.10
2007,08,16,02,56,14.10
2007,08,16,02,57,14.10
2007,08,16,02,58,14.10
2007,08,16,02,59,14.10
2007,08,16,03,00,14.10
2007,08,16,03,01,14.10
2007,08,16,03,02,14.10
2007,08,16,03,03,14.10
2007,08,16,03,04,14.00
2007,08,16,03,05,14.00
2007,08,16,03,06,14.00
2007,08,16,03,07,13.90
2007,08,16,03,08,13.90
2007,08,16,03,09,13.90
2007,08,16,03,10,13.90
2007,08,16,03,11,13.90
2007,08,16,03,12,13.90
2007,08,16,03,13,13.90
2007,08,16,03,14,13.90
2007,08,16,03,15,13.80
2007,08,16,03,16,13.80
2007,08,16,03,17,13.90
2007,08,16,03,18,13.80
2007,08,16,03,19,13.80
2007,08,16,03,20,13.80
2007,08,16,03,21,13.80
2007,08,16,03,22,13.80
2007,08,16,03,23,13.80
2007,08,16,03,24,13.80
2007,08,16,03,25,13.80
2007,08,16,03,26,13.80
2007,08,16,03,27,13.70
2007,08,16,03,28,13.70
2007,08,16,03,29,13.70
2007,08,16,03,30,13.70
2007,08,16,03,31,13.70
2007,08,16,03,32,13.80
2007,08,16,03,33,13.80
2007,08,16,03,34,13.90
2007,08,16,03,35,14.00
2007,08,16,03,36,14.00
2007,08,16,03,37,14.00
2007,08,16,03,38,14.00
2007,08,16,03,39,14.00
2007,08,16,03,40,14.10
2007,08,16,03,41,14.10
2007,08,16,03,42,14.10
2007,08,16,03,43,14.20
2007,08,16,03,44,14.20
2007,08,16,03,45,14.20
2007,08,16,03,46,14.20
2007,08,16,03,47,14.20
2007,08,16,03,48,14.20
2007,08,16,03,49,14.20
2007,08,16,03,50,14.20
2007,08,16,03,51,14.20
2007,08,16,03,52,14.20
2007,08,16,03,53,14.20
2007,08,16,03,54,14.20
2007,08,16,03,55,14.10
2007,08,16,03,56,14.10
2007,08,16,03,57,14.10
2007,08,16,03,58,14.00
2007,08,16,03,59,14.00
2007,08,16,04,00,14.00
2007,08,16,04,01,14.00
2007,08,16,04,02,14.00
2007,08,16,04,03,14.00
2007,08,16,04,04,14.00
2007,08,16,04,05,14.00
2007,08,16,04,06,14.00
2007,08,16,04,07,14.00
2007,08,16,04,08,13.90
2007,08,16,04,09,13.90
2007,08,16,04,10,13.90
2007,08,16,04,11,13.90
2007,08,16,04,12,13.90
2007,08,16,04,13,13.90
2007,08,16,04,14,13.90
2007,08,16,04,15,13.90
2007,08,16,04,16,13.80
2007,08,16,04,17,13.80
2007,08,16,04,18,13.80
2007,08,16,04,19,13.70
2007,08,16,04,20,13.70
2007,08,16,04,21,13.70
2007,08,16,04,22,13.70
2007,08,16,04,23,13.70
2007,08,16,04,24,13.70
2007,08,16,04,25,13.70
2007,08,16,04,26,13.60
2007,08,16,04,27,13.60
2007,08,16,04,28,13.60
2007,08,16,04,29,13.60
2007,08,16,04,30,13.60
2007,08,16,04,31,13.60
2007,08,16,04,32,13.60
2007,08,16,04,33,13.50
2007,08,16,04,34,13.50
2007,08,16,04,35,13.50
2007,08,16,04,36,13.50
2007,08,16,04,37,13.50
2007,08,16,04,38,13.50
2007,08,16,04,39,13.40
2007,08,16,04,40,13.40
2007,08,16,04,41,13.40
2007,08,16,04,42,13.40
2007,08,16,04,43,13.30
2007,08,16,04,44,13.30
2007,08,16,04,45,13.30
2007,08,16,04,46,13.30
2007,08,16,04,47,13.30
2007,08,16,04,48,13.30
2007,08,16,04,49,13.30
2007,08,16,04,50,13.30
2007,08,16,04,51,13.30
2007,08,16,04,52,13.30
2007,08,16,04,53,13.30
2007,08,16,04,54,13.30
2007,08,16,04,55,13.30
2007,08,16,04,56,13.30
2007,08,16,04,57,13.30
2007,08,16,04,58,13.30
2007,08,16,04,59,13.40
2007,08,16,05,00,13.40
2007,08,16,05,01,13.40
2007,08,16,05,02,13.40
2007,08,16,05,03,13.40
2007,08,16,05,04,13.50
2007,08,16,05,05,13.50
2007,08,16,05,06,13.50
2007,08,16,05,07,13.60
2007,08,16,05,08,13.60
2007,08,16,05,09,13.70
2007,08,16,05,10,13.70
2007,08,16,05,11,13.80
2007,08,16,05,12,13.90
2007,08,16,05,13,13.90
2007,08,16,05,14,14.00
2007,08,16,05,15,14.10
2007,08,16,05,16,14.10
2007,08,16,05,17,14.10
2007,08,16,05,18,14.20
2007,08,16,05,19,14.20
2007,08,16,05,20,14.20
2007,08,16,05,21,14.20
2007,08,16,05,22,14.20
2007,08,16,05,23,14.20
2007,08,16,05,24,14.20
2007,08,16,05,25,14.20
2007,08,16,05,26,14.20
2007,08,16,05,27,14.30
2007,08,16,05,28,14.30
2007,08,16,05,29,14.40
2007,08,16,05,30,14.40
2007,08,16,05,31,14.40
2007,08,16,05,32,14.40
2007,08,16,05,33,14.40
2007,08,16,05,34,14.50
2007,08,16,05,35,14.50
2007,08,16,05,36,14.50
2007,08,16,05,37,14.50
2007,08,16,05,38,14.50
2007,08,16,05,39,14.60
2007,08,16,05,40,14.50
2007,08,16,05,41,14.50
2007,08,16,05,42,14.50
2007,08,16,05,43,14.50
2007,08,16,05,44,14.50
2007,08,16,05,45,14.40
2007,08,16,05,46,14.40
2007,08,16,05,47,14.40
2007,08,16,05,48,14.40
2007,08,16,05,49,14.40
2007,08,16,05,50,14.40
2007,08,16,05,51,14.50
2007,08,16,05,52,14.50
2007,08,16,05,53,14.50
2007,08,16,05,54,14.50
2007,08,16,05,55,14.50
2007,08,16,05,56,14.50
2007,08,16,05,57,14.50
2007,08,16,05,58,14.50
2007,08,16,05,59,14.50
2007,08,16,06,00,14.50
2007,08,16,06,01,14.50
2007,08,16,06,02,14.50
2007,08,16,06,03,14.50
2007,08,16,06,04,14.50
2007,08,16,06,05,14.40
2007,08,16,06,06,14.40
2007,08,16,06,07,14.40
2007,08,16,06,08,14.30
2007,08,16,06,09,14.30
2007,08,16,06,10,14.30
2007,08,16,06,11,14.30
2007,08,16,06,12,14.30
2007,08,16,06,13,14.30
2007,08,16,06,14,14.20
2007,08,16,06,15,14.20
2007,08,16,06,16,14.20
2007,08,16,06,17,14.20
2007,08,16,06,18,14.20
2007,08,16,06,19,14.20
2007,08,16,06,20,14.20
2007,08,16,06,21,14.20
2007,08,16,06,22,14.20
2007,08,16,06,23,14.20
2007,08,16,06,24,14.20
2007,08,16,06,25,14.20
2007,08,16,06,26,14.20
2007,08,16,06,27,14.20
2007,08,16,06,28,14.20
2007,08,16,06,29,14.20
2007,08,16,06,30,14.20
2007,08,16,06,31,14.20
2007,08,16,06,32,14.20
2007,08,16,06,33,14.20
2007,08,16,06,34,14.20
2007,08,16,06,35,14.20
2007,08,16,06,36,14.20
2007,08,16,06,37,14.20
2007,08,16,06,38,14.20
2007,08,16,06,39,14.20
2007,08,16,06,40,14.20
2007,08,16,06,41,14.20
2007,08,16,06,42,14.20
2007,08,16,06,43,14.20
2007,08,16,06,44,14.20
2007,08,16,06,45,14.20
2007,08,16,06,46,14.20
2007,08,16,06,47,14.30
2007,08,16,06,48,14.30
2007,08,16,06,49,14.40
2007,08,16,06,50,14.40
2007,08,16,06,51,14.40
2007,08,16,06,52,14.40
2007,08,16,06,53,14.40
2007,08,16,06,54,14.40
2007,08,16,06,55,14.40
2007,08,16,06,56,14.40
2007,08,16,06,57,14.40
2007,08,16,06,58,14.40
2007,08,16,06,59,14.40
2007,08,16,07,00,14.30
2007,08,16,07,01,14.30
2007,08,16,07,02,14.20
2007,08,16,07,03,14.20
2007,08,16,07,04,14.20
2007,08,16,07,05,14.20
2007,08,16,07,06,14.20
2007,08,16,07,07,14.30
2007,08,16,07,08,14.30
2007,08,16,07,09,14.30
2007,08,16,07,10,14.30
2007,08,16,07,11,14.40
2007,08,16,07,12,14.40
2007,08,16,07,13,14.40
2007,08,16,07,14,14.40
2007,08,16,07,15,14.40
2007,08,16,07,16,14.40
2007,08,16,07,17,14.40
2007,08,16,07,18,14.50
2007,08,16,07,19,14.50
2007,08,16,07,20,14.50
2007,08,16,07,21,14.50
2007,08,16,07,22,14.50
2007,08,16,07,23,14.50
2007,08,16,07,24,14.60
2007,08,16,07,25,14.60
2007,08,16,07,26,14.70
2007,08,16,07,27,14.70
2007,08,16,07,28,14.70
2007,08,16,07,29,14.80
2007,08,16,07,30,14.80
2007,08,16,07,31,14.80
2007,08,16,07,32,14.80
2007,08,16,07,33,14.80
2007,08,16,07,34,14.80
2007,08,16,07,35,14.90
2007,08,16,07,36,14.90
2007,08,16,07,37,15.00
2007,08,16,07,38,15.00
2007,08,16,07,39,15.10
2007,08,16,07,40,15.10
2007,08,16,07,41,15.20
2007,08,16,07,42,15.40
2007,08,16,07,43,15.50
2007,08,16,07,44,15.60
2007,08,16,07,45,15.70
2007,08,16,07,46,15.80
2007,08,16,07,47,15.80
2007,08,16,07,48,15.80
2007,08,16,07,49,15.90
2007,08,16,07,50,15.90
2007,08,16,07,51,16.00
2007,08,16,07,52,16.20
2007,08,16,07,53,16.30
2007,08,16,07,54,16.40
2007,08,16,07,55,16.40
2007,08,16,07,56,16.50
2007,08,16,07,57,16.70
2007,08,16,07,58,16.80
2007,08,16,07,59,16.90
2007,08,16,08,00,17.00
2007,08,16,08,01,17.10
2007,08,16,08,02,17.10
2007,08,16,08,03,17.10
2007,08,16,08,04,17.20
2007,08,16,08,05,17.20
2007,08,16,08,06,17.20
2007,08,16,08,07,17.30
2007,08,16,08,08,17.30
2007,08,16,08,09,17.30
2007,08,16,08,10,17.40
2007,08,16,08,11,17.40
2007,08,16,08,12,17.50
2007,08,16,08,13,17.50
2007,08,16,08,14,17.50
2007,08,16,08,15,17.60
2007,08,16,08,16,17.60
2007,08,16,08,17,17.60
2007,08,16,08,18,17.70
2007,08,16,08,19,17.70
2007,08,16,08,20,17.70
2007,08,16,08,21,17.80
2007,08,16,08,22,17.80
2007,08,16,08,23,17.80
2007,08,16,08,24,17.80
2007,08,16,08,25,17.80
2007,08,16,08,26,17.90
2007,08,16,08,27,17.90
2007,08,16,08,28,17.90
2007,08,16,08,29,17.90
2007,08,16,08,30,17.80
2007,08,16,08,31,17.80
2007,08,16,08,32,17.70
2007,08,16,08,33,17.70
2007,08,16,08,34,17.60
2007,08,16,08,35,17.60
2007,08,16,08,36,17.60
2007,08,16,08,37,17.60
2007,08,16,08,38,17.60
2007,08,16,08,39,17.50
2007,08,16,08,40,17.50
2007,08,16,08,41,17.50
2007,08,16,08,42,17.40
2007,08,16,08,43,17.40
2007,08,16,08,44,17.40
2007,08,16,08,45,17.40
2007,08,16,08,46,17.40
2007,08,16,08,47,17.30
2007,08,16,08,48,17.30
2007,08,16,08,49,17.30
2007,08,16,08,50,17.30
2007,08,16,08,51,17.30
2007,08,16,08,52,17.20
2007,08,16,08,53,17.20
2007,08,16,08,54,17.10
2007,08,16,08,55,17.10
2007,08,16,08,56,17.10
2007,08,16,08,57,17.10
2007,08,16,08,58,17.10
2007,08,16,08,59,17.10
2007,08,16,09,00,17.10
2007,08,16,09,01,17.10
2007,08,16,09,02,17.10
2007,08,16,09,03,17.10
2007,08,16,09,04,17.10
2007,08,16,09,05,17.10
2007,08,16,09,06,17.20
2007,08,16,09,07,17.20
2007,08,16,09,08,17.20
2007,08,16,09,09,17.30
2007,08,16,09,10,17.30
2007,08,16,09,11,17.30
2007,08,16,09,12,17.30
2007,08,16,09,13,17.30
2007,08,16,09,14,17.30
2007,08,16,09,15,17.30
2007,08,16,09,16,17.30
2007,08,16,09,17,17.30
2007,08,16,09,18,17.30
2007,08,16,09,19,17.40
2007,08,16,09,20,17.40
2007,08,16,09,21,17.40
2007,08,16,09,22,17.50
2007,08,16,09,23,17.50
2007,08,16,09,24,17.50
2007,08,16,09,25,17.50
2007,08,16,09,26,17.50
2007,08,16,09,27,17.50
2007,08,16,09,28,17.40
2007,08,16,09,29,17.40
2007,08,16,09,30,17.40
2007,08,16,09,31,17.40
2007,08,16,09,32,17.40
2007,08,16,09,33,17.40
2007,08,16,09,34,17.50
2007,08,16,09,35,17.50
2007,08,16,09,36,17.50
2007,08,16,09,37,17.50
2007,08,16,09,38,17.60
2007,08,16,09,39,17.60
2007,08,16,09,40,17.70
2007,08,16,09,41,17.80
2007,08,16,09,42,17.90
2007,08,16,09,43,17.90
2007,08,16,09,44,18.10
2007,08,16,09,45,18.10
2007,08,16,09,46,18.20
2007,08,16,09,47,18.20
2007,08,16,09,48,18.20
2007,08,16,09,49,18.20
2007,08,16,09,50,18.20
2007,08,16,09,51,18.30
2007,08,16,09,52,18.30
2007,08,16,09,53,18.30
2007,08,16,09,54,18.40
2007,08,16,09,55,18.40
2007,08,16,09,56,18.50
2007,08,16,09,57,18.50
2007,08,16,09,58,18.50
2007,08,16,09,59,18.50
2007,08,16,10,00,18.50
2007,08,16,10,01,18.50
2007,08,16,10,02,18.60
2007,08,16,10,03,18.60
2007,08,16,10,04,18.60
2007,08,16,10,05,18.60
2007,08,16,10,06,18.60
2007,08,16,10,07,18.60
2007,08,16,10,08,18.60
2007,08,16,10,09,18.70
2007,08,16,10,10,18.70
2007,08,16,10,11,18.70
2007,08,16,10,12,18.80
2007,08,16,10,13,18.80
2007,08,16,10,14,18.80
2007,08,16,10,15,18.80
2007,08,16,10,16,18.90
2007,08,16,10,17,18.90
2007,08,16,10,18,18.90
2007,08,16,10,19,18.90
2007,08,16,10,20,18.90
2007,08,16,10,21,18.90
2007,08,16,10,22,18.90
2007,08,16,10,23,18.90
2007,08,16,10,24,18.90
2007,08,16,10,25,18.90
2007,08,16,10,26,18.90
2007,08,16,10,27,18.90
2007,08,16,10,28,18.90
2007,08,16,10,29,18.90
2007,08,16,10,30,18.90
2007,08,16,10,31,18.90
2007,08,16,10,32,18.90
2007,08,16,10,33,18.90
2007,08,16,10,34,18.90
2007,08,16,10,35,18.90
2007,08,16,10,36,18.80
2007,08,16,10,37,18.80
2007,08,16,10,38,18.80
2007,08,16,10,39,18.80
2007,08,16,10,40,18.70
2007,08,16,10,41,18.70
2007,08,16,10,42,18.70
2007,08,16,10,43,18.70
2007,08,16,10,44,18.70
2007,08,16,10,45,18.70
2007,08,16,10,46,18.70
2007,08,16,10,47,18.70
2007,08,16,10,48,18.70
2007,08,16,10,49,18.70
2007,08,16,10,50,18.70
2007,08,16,10,51,18.70
2007,08,16,10,52,18.70
2007,08,16,10,53,18.70
2007,08,16,10,54,18.80
2007,08,16,10,55,18.80
2007,08,16,10,56,18.90
2007,08,16,10,57,18.90
2007,08,16,10,58,18.90
2007,08,16,10,59,19.10
2007,08,16,11,00,19.10
2007,08,16,11,01,19.10
2007,08,16,11,02,19.10
2007,08,16,11,03,19.10
2007,08,16,11,04,19.10
2007,08,16,11,05,19.10
2007,08,16,11,06,19.10
2007,08,16,11,07,19.20
2007,08,16,11,08,19.20
2007,08,16,11,09,19.30
2007,08,16,11,10,19.30
2007,08,16,11,11,19.30
2007,08,16,11,12,19.30
2007,08,16,11,13,19.30
2007,08,16,11,14,19.30
2007,08,16,11,15,19.30
2007,08,16,11,16,19.30
2007,08,16,11,17,19.30
2007,08,16,11,18,19.30
2007,08,16,11,19,19.20
2007,08,16,11,20,19.20
2007,08,16,11,21,19.30
2007,08,16,11,22,19.30
2007,08,16,11,23,19.40
2007,08,16,11,24,19.40
2007,08,16,11,25,19.50
2007,08,16,11,26,19.60
2007,08,16,11,27,19.70
2007,08,16,11,28,19.80
2007,08,16,11,29,19.80
2007,08,16,11,30,19.90
2007,08,16,11,31,20.00
2007,08,16,11,32,20.10
2007,08,16,11,33,20.20
2007,08,16,11,34,20.30
2007,08,16,11,35,20.50
2007,08,16,11,36,20.60
2007,08,16,11,37,20.60
2007,08,16,11,38,20.70
2007,08,16,11,39,20.80
2007,08,16,11,40,20.80
2007,08,16,11,41,20.90
2007,08,16,11,42,20.80
2007,08,16,11,43,20.80
2007,08,16,11,44,20.80
2007,08,16,11,45,20.70
2007,08,16,11,46,20.80
2007,08,16,11,47,20.80
2007,08,16,11,48,20.90
2007,08,16,11,49,21.00
2007,08,16,11,50,21.10
2007,08,16,11,51,21.20
2007,08,16,11,52,21.30
2007,08,16,11,53,21.30
2007,08,16,11,54,21.30
2007,08,16,11,55,21.30
2007,08,16,11,56,21.30
2007,08,16,11,57,21.30
2007,08,16,11,58,21.20
2007,08,16,11,59,21.20
2007,08,16,12,00,21.20
2007,08,16,12,01,21.20
2007,08,16,12,02,21.30
2007,08,16,12,03,21.30
2007,08,16,12,04,21.40
2007,08,16,12,05,21.50
2007,08,16,12,06,21.60
2007,08,16,12,07,21.60
2007,08,16,12,08,21.60
2007,08,16,12,09,21.60
2007,08,16,12,10,21.60
2007,08,16,12,11,21.50
2007,08,16,12,12,21.40
2007,08,16,12,13,21.30
2007,08,16,12,14,21.20
2007,08,16,12,15,21.20
2007,08,16,12,16,21.20
2007,08,16,12,17,21.30
2007,08,16,12,18,21.30
2007,08,16,12,19,21.30
2007,08,16,12,20,21.30
2007,08,16,12,21,21.30
2007,08,16,12,22,21.20
2007,08,16,12,23,21.20
2007,08,16,12,24,21.20
2007,08,16,12,25,21.20
2007,08,16,12,26,21.20
2007,08,16,12,27,21.30
2007,08,16,12,28,21.30
2007,08,16,12,29,21.30
2007,08,16,12,30,21.30
2007,08,16,12,31,21.40
2007,08,16,12,32,21.40
2007,08,16,12,33,21.30
2007,08,16,12,34,21.20
2007,08,16,12,35,21.20
2007,08,16,12,36,21.10
2007,08,16,12,37,21.20
2007,08,16,12,38,21.30
2007,08,16,12,39,21.30
2007,08,16,12,40,21.30
2007,08,16,12,41,21.30
2007,08,16,12,42,21.40
2007,08,16,12,43,21.60
2007,08,16,12,44,21.60
2007,08,16,12,45,21.70
2007,08,16,12,46,21.70
2007,08,16,12,47,21.70
2007,08,16,12,48,21.70
2007,08,16,12,49,21.70
2007,08,16,12,50,21.60
2007,08,16,12,51,21.70
2007,08,16,12,52,21.70
2007,08,16,12,53,21.60
2007,08,16,12,54,21.60
2007,08,16,12,55,21.60
2007,08,16,12,56,21.60
2007,08,16,12,57,21.60
2007,08,16,12,58,21.70
2007,08,16,12,59,21.80
2007,08,16,13,00,21.90
2007,08,16,13,01,22.00
2007,08,16,13,02,22.10
2007,08,16,13,03,22.30
2007,08,16,13,04,22.40
2007,08,16,13,05,22.60
2007,08,16,13,06,22.60
2007,08,16,13,07,22.60
2007,08,16,13,08,22.60
2007,08,16,13,09,22.40
2007,08,16,13,10,22.30
2007,08,16,13,11,22.10
2007,08,16,13,12,22.00
2007,08,16,13,13,22.00
2007,08,16,13,14,21.90
2007,08,16,13,15,21.70
2007,08,16,13,16,21.60
2007,08,16,13,17,21.50
2007,08,16,13,18,21.40
2007,08,16,13,19,21.10
2007,08,16,13,20,20.90
2007,08,16,13,21,20.80
2007,08,16,13,22,20.70
2007,08,16,13,23,20.60
2007,08,16,13,24,20.50
2007,08,16,13,25,20.40
2007,08,16,13,26,20.40
2007,08,16,13,27,20.50
2007,08,16,13,28,20.50
2007,08,16,13,29,20.40
2007,08,16,13,30,20.40
2007,08,16,13,31,20.30
2007,08,16,13,32,20.20
2007,08,16,13,33,20.20
2007,08,16,13,34,20.20
2007,08,16,13,35,20.30
2007,08,16,13,36,20.50
2007,08,16,13,37,20.60
2007,08,16,13,38,20.80
2007,08,16,13,39,20.90
2007,08,16,13,40,20.90
2007,08,16,13,41,20.90
2007,08,16,13,42,20.90
2007,08,16,13,43,21.00
2007,08,16,13,44,21.20
2007,08,16,13,45,21.20
2007,08,16,13,46,21.10
2007,08,16,13,47,21.00
2007,08,16,13,48,20.90
2007,08,16,13,49,20.80
2007,08,16,13,50,20.70
2007,08,16,13,51,20.60
2007,08,16,13,52,20.40
2007,08,16,13,53,20.20
2007,08,16,13,54,20.00
2007,08,16,13,55,19.80
2007,08,16,13,56,19.60
2007,08,16,13,57,19.50
2007,08,16,13,58,19.40
2007,08,16,13,59,19.30
2007,08,16,14,00,19.10
2007,08,16,14,01,19.10
2007,08,16,14,02,19.10
2007,08,16,14,03,19.10
2007,08,16,14,04,19.20
2007,08,16,14,05,19.30
2007,08,16,14,06,19.50
2007,08,16,14,07,19.70
2007,08,16,14,08,19.90
2007,08,16,14,09,20.10
2007,08,16,14,10,20.50
2007,08,16,14,11,20.70
2007,08,16,14,12,21.00
2007,08,16,14,13,21.00
2007,08,16,14,14,21.10
2007,08,16,14,15,21.10
2007,08,16,14,16,21.10
2007,08,16,14,17,21.00
2007,08,16,14,18,21.10
2007,08,16,14,19,21.10
2007,08,16,14,20,21.20
2007,08,16,14,21,21.20
2007,08,16,14,22,21.20
2007,08,16,14,23,21.20
2007,08,16,14,24,21.20
2007,08,16,14,25,21.30
2007,08,16,14,26,21.40
2007,08,16,14,27,21.40
2007,08,16,14,28,21.50
2007,08,16,14,29,21.60
2007,08,16,14,30,21.60
2007,08,16,14,31,21.70
2007,08,16,14,32,21.80
2007,08,16,14,33,21.90
2007,08,16,14,34,22.00
2007,08,16,14,35,22.10
2007,08,16,14,36,22.30
2007,08,16,14,37,22.40
2007,08,16,14,38,22.50
2007,08,16,14,39,22.60
2007,08,16,14,40,22.80
2007,08,16,14,41,22.90
2007,08,16,14,42,22.90
2007,08,16,14,43,22.90
2007,08,16,14,44,22.80
2007,08,16,14,45,22.80
2007,08,16,14,46,22.80
2007,08,16,14,47,22.70
2007,08,16,14,48,22.70
2007,08,16,14,49,22.70
2007,08,16,14,50,22.70
2007,08,16,14,51,22.70
2007,08,16,14,52,22.70
2007,08,16,14,53,22.80
2007,08,16,14,54,22.90
2007,08,16,14,55,22.90
2007,08,16,14,56,22.70
2007,08,16,14,57,22.60
2007,08,16,14,58,22.50
2007,08,16,14,59,22.50
2007,08,16,15,00,22.50
2007,08,16,15,01,22.50
2007,08,16,15,02,22.30
2007,08,16,15,03,22.20
2007,08,16,15,04,22.10
2007,08,16,15,05,22.00
2007,08,16,15,06,22.00
2007,08,16,15,07,21.90
2007,08,16,15,08,21.80
2007,08,16,15,09,21.80
2007,08,16,15,10,21.70
2007,08,16,15,11,21.70
2007,08,16,15,12,21.70
2007,08,16,15,13,21.60
2007,08,16,15,14,21.40
2007,08,16,15,15,21.20
2007,08,16,15,16,21.00
2007,08,16,15,17,21.00
2007,08,16,15,18,20.70
2007,08,16,15,19,20.50
2007,08,16,15,20,20.40
2007,08,16,15,21,20.20
2007,08,16,15,22,20.10
2007,08,16,15,23,19.90
2007,08,16,15,24,19.90
2007,08,16,15,25,19.80
2007,08,16,15,26,19.70
2007,08,16,15,27,19.70
2007,08,16,15,28,19.70
2007,08,16,15,29,19.60
2007,08,16,15,30,19.60
2007,08,16,15,31,19.40
2007,08,16,15,32,19.30
2007,08,16,15,33,19.30
2007,08,16,15,34,19.20
2007,08,16,15,35,19.10
2007,08,16,15,36,19.10
2007,08,16,15,37,19.10
2007,08,16,15,38,19.10
2007,08,16,15,39,19.10
2007,08,16,15,40,19.10
2007,08,16,15,41,19.10
2007,08,16,15,42,19.10
2007,08,16,15,43,19.10
2007,08,16,15,44,19.10
2007,08,16,15,45,19.10
2007,08,16,15,46,19.10
2007,08,16,15,47,19.20
2007,08,16,15,48,19.20
2007,08,16,15,49,19.20
2007,08,16,15,50,19.20
2007,08,16,15,51,19.10
2007,08,16,15,52,19.10
2007,08,16,15,53,19.10
2007,08,16,15,54,19.10
2007,08,16,15,55,19.10
2007,08,16,15,56,19.10
2007,08,16,15,57,19.10
2007,08,16,15,58,19.10
2007,08,16,15,59,19.10
2007,08,16,16,00,19.10
2007,08,16,16,01,19.10
2007,08,16,16,02,19.10
2007,08,16,16,03,19.00
2007,08,16,16,04,18.90
2007,08,16,16,05,18.90
2007,08,16,16,06,18.90
2007,08,16,16,07,18.90
2007,08,16,16,08,18.90
2007,08,16,16,09,18.90
2007,08,16,16,10,18.90
2007,08,16,16,11,18.90
2007,08,16,16,12,18.90
2007,08,16,16,13,18.90
2007,08,16,16,14,18.90
2007,08,16,16,15,18.80
2007,08,16,16,16,18.80
2007,08,16,16,17,18.80
2007,08,16,16,18,18.80
2007,08,16,16,19,18.80
2007,08,16,16,20,18.70
2007,08,16,16,21,18.70
2007,08,16,16,22,18.70
2007,08,16,16,23,18.70
2007,08,16,16,24,18.70
2007,08,16,16,25,18.70
2007,08,16,16,26,18.60
2007,08,16,16,27,18.60
2007,08,16,16,28,18.70
2007,08,16,16,29,18.70
2007,08,16,16,30,18.60
2007,08,16,16,31,18.60
2007,08,16,16,32,18.60
2007,08,16,16,33,18.60
2007,08,16,16,34,18.50
2007,08,16,16,35,18.50
2007,08,16,16,36,18.40
2007,08,16,16,37,18.40
2007,08,16,16,38,18.40
2007,08,16,16,39,18.30
2007,08,16,16,40,18.30
2007,08,16,16,41,18.30
2007,08,16,16,42,18.20
2007,08,16,16,43,18.20
2007,08,16,16,44,18.20
2007,08,16,16,45,18.20
2007,08,16,16,46,18.20
2007,08,16,16,47,18.20
2007,08,16,16,48,18.20
2007,08,16,16,49,18.20
2007,08,16,16,50,18.20
2007,08,16,16,51,18.20
2007,08,16,16,52,18.20
2007,08,16,16,53,18.10
2007,08,16,16,54,18.10
2007,08,16,16,55,18.10
2007,08,16,16,56,18.10
2007,08,16,16,57,18.10
2007,08,16,16,58,18.10
2007,08,16,16,59,17.90
2007,08,16,17,00,17.80
2007,08,16,17,01,17.70
2007,08,16,17,02,17.50
2007,08,16,17,03,17.30
2007,08,16,17,04,17.20
2007,08,16,17,05,17.00
2007,08,16,17,06,16.90
2007,08,16,17,07,16.80
2007,08,16,17,08,16.70
2007,08,16,17,09,16.60
2007,08,16,17,10,16.60
2007,08,16,17,11,16.40
2007,08,16,17,12,16.40
2007,08,16,17,13,16.40
2007,08,16,17,14,16.30
2007,08,16,17,15,16.30
2007,08,16,17,16,16.30
2007,08,16,17,17,16.20
2007,08,16,17,18,16.20
2007,08,16,17,19,16.20